リニア彗星

P/2003 O2 ( LINEAR )

English version
Home page
Updated on June 7, 2011

---------------------------------------------------------------------

・ プロフィール

発見日 2003年7月29日
発見光度 18.6等
発見者 Lincoln Laboratory Near-Earth Asteroid Research project

・ 写真集

・ 軌道要素

Epoch 2003 Aug. 29.0 TT = JDT 2452880.5
T 2003 Sept. 5.80931 TT                                 MPC
q   1.5054544            (2000.0)            P               Q
n   0.11235820     Peri.   32.72085     +0.94941215     -0.30683001
a   4.2533671      Node   344.71137     +0.20468597     +0.76612911
e   0.6460559      Incl.   14.69126     +0.23816009     +0.56471367
P   8.77
From 433 observations 2003 July 30-Dec. 15, mean residual 0".6.

・ 星図

・ 光度変化

        m1 = 12.0 + 5 logΔ + 25.0 log r

---------------------------------------------------------------------

軌道要素はM.P.E.C. 2011-K13に掲載されたものです。
星図は StellaNavigator Ver.2.0 for Windows (アストロアーツ 編著 / アスキー出版局刊) で作成したものです。
光度グラフはComet for Windowsで作成したものです。

---------------------------------------------------------------------

Copyright(C) Seiichi Yoshida (comet@aerith.net). All rights reserved.